ATLAS 5 CENTAUR DEB, 45474

Orbit data source: Space-Track

ATLAS 5 CENTAUR DEB, 45474 is space debris in HEO originally from a launch on Wed, 17 Oct 2018 UTC launched from the Air Force Eastern Test Range (AFETR). Debris objects in space refer to the collection of defunct objects orbiting the Earth. Examples of debris include non-operational satellites, rocket bodies, and fragments generated from explosions, collisions, or faulty payload assembly.

Loading next visibility...
Identifier
45474, 2018-079BW
Orbit
HEO
Country
Flag of USUS
Related business
Flag of USUnited Launch Alliance/Lockheed Martin (US)
Manufacturer
ULA Decatur
Mission
Spacecraft
Bus & Motor
Unknown
Mass
Unknown
Launch date (UTC)
2018-10-17 (7 years ago)
Launch vehicle
Unknown
Launch site
Air Force Eastern Test Range (AFETR)
Object type
Payload
Rocket body
Debris
Shape & HBR
Unknown shape, 1.1 m
Radar Cross Section
RCS unknown

Expand to show TLE details & history
Last TLE update: 1 day ago

TLE from 1 day ago
0 ATLAS 5 CENTAUR DEB
1 45474U 18079BW  26035.21560880 -.00000143  00000-0  00000-0 0  9994
2 45474  12.8958  72.4782 4500316 234.8871  74.3051  1.74204654 40671
Epoch: 2026-02-04T05:10Z
TLE epoch observation values (Epoch: 2026-02-04T05:10:28.600Z)
Latitude
-0°
Longitude
-139.41678°
Altitude
25,019.325 km
Speed
3.425 km/s
True Right ascension
04h 50m 21s
True Declination
0° 00' 00"
Sunlit
Object was in daylight at epoch
Visualization orbit readout
Latitude
Unknown
Longitude
Unknown
Altitude
Unknown
Speed
Unknown
Apparent Right ascension
Unknown
Apparent Declination
Unknown
Sunlit
N/A
Visualization observer readout
Local Sidereal Time
16:14:51
Azimuth
Unknown
Elevation
Unknown
Doppler factor
Unknown
Orbital elements
Apogee altitude
35,931.14 km
Perigee altitude
9,668.938 km
Semi-major axis
29,178.176 km
Eccentricity
0.45003
Inclination
12.8958°
RAAN
72.4782°
Arg. of periapsis
234.8871°
True anomaly
125.111°
Mean anomaly
74.3051°
Eccentric anomaly
99.71987°
Mean motion
0.43547 °/min
Orbital period
826.7 mins
BSTAR
0
Loading maneuver chart data...
Computing Atmospheric mass density...

Documentation

Showing up to 5 results
|